Weather reports worldwide

Advertisment
Herstmonceux, United Kingdom (3882): temperature & dewpoint: 17.10.2020 07:00:00 - 23.10.2020 07:00:00 (BST)Herstmonceux, United Kingdom (3882): temperature -20cm & temperature -100cm: 17.10.2020 07:00:00 - 23.10.2020 07:00:00 (BST)Herstmonceux, United Kingdom (3882): wind speed & gusts: 17.10.2020 07:00:00 - 23.10.2020 07:00:00 (BST)Herstmonceux, United Kingdom (3882): wind direction: 17.10.2020 07:00:00 - 23.10.2020 07:00:00 (BST)Herstmonceux, United Kingdom (3882): reduced air pressure: 17.10.2020 07:00:00 - 23.10.2020 07:00:00 (BST)Herstmonceux, United Kingdom (3882): visibility: 17.10.2020 07:00:00 - 23.10.2020 07:00:00 (BST)Herstmonceux, United Kingdom (3882): sunshine duration: 17.10.2020 07:00:00 - 23.10.2020 07:00:00 (BST)Herstmonceux, United Kingdom (3882): precipitation: 17.10.2020 07:00:00 - 23.10.2020 07:00:00 (BST)
Date & Time tt [°C] td [°C] tt -20cm [°C] tt -100cm [°C] ff [km/h] ff [kn] fx [km/h] fx [kn] dd ppp [hPa] vv [km] sd [min] rr [mm]
23.10.2020 07:00:00 - - - - - - - - - - - - -
23.10.2020 06:00:00 11,1 11,1 - - 5 3 - - SSW 1008,9 5 0 0,0
23.10.2020 05:00:00 11,0 11,0 - - 5 3 - - SSW 1008,9 1,4 0 0,0
23.10.2020 04:00:00 9,9 9,9 - - 4 2 - - S 1009,5 5 0 0,2
23.10.2020 03:00:00 7,7 7,7 - - 5 3 - - E 1010,3 4,5 0 0,0
23.10.2020 02:00:00 6,9 6,8 - - 4 2 - - E 1010,7 10 0 0,0
23.10.2020 01:00:00 8,9 8,9 - - 2 1 - - S 1010,9 7 - 0,0
23.10.2020 00:00:00 8,6 8,5 - - 4 2 - - S 1011,1 7 0 0,0
22.10.2020 23:00:00 8,8 8,5 - - 0 0 - - N 1011,2 8 0 0,0
22.10.2020 22:00:00 10,3 10,1 - - 2 1 - - W 1011,3 18 0 0,0
22.10.2020 21:00:00 10,8 10,5 - - 5 3 - - WSW 1011,1 17 0 0,0
22.10.2020 20:00:00 10,6 10,1 - - 4 2 - - SW 1011,1 12 0 0,0
22.10.2020 19:00:00 11,4 10,0 - - 4 2 - - WSW 1010,8 15 0 0,0
22.10.2020 18:00:00 13,3 10,6 - - 8 4 - - SW 1010,4 24 18 0,0
22.10.2020 17:00:00 14,6 10,5 - - 9 5 - - WSW 1010,1 20 42 0,0
22.10.2020 16:00:00 15,5 10,7 - - 13 7 - - W 1009,8 30 36 0,0
22.10.2020 15:00:00 16,5 11,2 - - 13 7 - - WSW 1009,5 35 42 0,0
22.10.2020 14:00:00 16,0 11,1 - - 15 8 - - WSW 1009,4 29 48 0,0
22.10.2020 13:00:00 16,3 11,0 - - 16 9 - - W 1009,4 20 60 0,0
22.10.2020 12:00:00 15,7 11,3 - - 13 7 - - W 1009,4 18 24 0,0
22.10.2020 11:00:00 15,3 12,4 - - 16 9 - - WSW 1009,4 16 0 0,0
22.10.2020 10:00:00 14,6 12,3 13,7 13,7 13 7 - - SW 1009,4 15 0 0,0
22.10.2020 09:00:00 13,6 12,2 - - 11 6 - - SW 1008,8 13 0 0,0
22.10.2020 08:00:00 12,9 11,6 - - 11 6 - - WSW 1008,0 13 0 0,0
22.10.2020 07:00:00 13,4 11,7 - - 13 7 - - SW 1007,4 15 0 0,0
22.10.2020 06:00:00 13,4 11,5 - - 18 10 - - SW 1007,5 14 0 0,0
22.10.2020 05:00:00 13,3 11,3 - - 18 10 - - SW 1007,0 16 0 0,0
22.10.2020 04:00:00 13,6 11,9 - - 18 10 - - SW 1006,7 12 0 0,0
22.10.2020 03:00:00 13,8 11,4 - - 21 11 - - SW 1006,7 16 0 0,2
22.10.2020 02:00:00 14,0 11,1 - - 18 10 - - SW 1006,4 21 0 0,0
22.10.2020 01:00:00 14,1 10,5 - - 21 11 - - SW 1005,9 21 - 0,0
22.10.2020 00:00:00 13,5 10,8 - - 13 7 - - SW 1005,8 14 0 0,0
21.10.2020 23:00:00 13,8 10,4 - - 16 9 - - WSW 1005,5 15 0 0,0
21.10.2020 22:00:00 14,4 12,3 - - 16 9 - - WSW 1004,3 24 0 0,0
21.10.2020 21:00:00 14,6 13,6 - - 15 8 - - WSW 1003,4 17 0 0,0
21.10.2020 20:00:00 14,8 13,6 - - 15 8 - - WSW 1002,7 27 0 0,0
21.10.2020 19:00:00 14,2 12,7 - - 9 5 - - WSW 1001,9 21 0 0,0
21.10.2020 18:00:00 14,7 13,2 - - 15 8 - - WSW 1000,8 19 0 0,0
21.10.2020 17:00:00 15,2 13,3 - - 16 9 50 27 WSW 999,1 19 24 0,0
21.10.2020 16:00:00 15,7 13,4 - - 22 12 52 28 WSW 996,9 40 18 0,0
21.10.2020 15:00:00 15,0 13,7 - - 24 13 54 29 WSW 995,0 24 0 0,0
21.10.2020 14:00:00 15,7 14,9 - - 24 13 - - SW 993,9 30 0 0,0
21.10.2020 13:00:00 15,4 14,8 - - 24 13 52 28 SW 993,2 25 - 0,0
21.10.2020 12:00:00 15,2 15,1 - - - - - - - 991,6 13 - 0,0
21.10.2020 11:00:00 - - - - - - - - - - - - -
21.10.2020 10:00:00 14,2 14,2 13,7 13,7 15 8 - - S 992,0 3,7 0 4,8
21.10.2020 09:00:00 14,1 14,1 - - 15 8 - - S 992,6 4,1 0 2,4
21.10.2020 08:00:00 13,7 13,7 - - 13 7 - - S 993,7 5 0 2,2
21.10.2020 07:00:00 13,6 13,6 - - 13 7 - - S 994,6 4,0 0 2,8
21.10.2020 06:00:00 13,9 13,8 - - 13 7 - - SSE 995,7 5 0 3,0
21.10.2020 05:00:00 14,1 14,0 - - 9 5 - - S 996,8 4,9 0 3,2
21.10.2020 04:00:00 14,3 14,0 - - 8 4 - - SSE 997,8 4,1 0 1,4
21.10.2020 03:00:00 14,4 14,0 - - 9 5 - - S 999,1 8 0 0,4
21.10.2020 02:00:00 14,7 13,9 - - 9 5 - - S 999,9 10 0 0,0
21.10.2020 01:00:00 14,7 13,8 - - 8 4 - - S 1000,5 16 - 0,0
21.10.2020 00:00:00 14,5 13,7 - - 8 4 - - S 1001,0 13 0 0,0
20.10.2020 23:00:00 14,5 13,5 - - 8 4 - - SSE 1001,4 13 0 0,0
20.10.2020 22:00:00 14,1 12,9 - - 4 2 - - S 1001,6 14 0 0,0
20.10.2020 21:00:00 14,8 13,4 - - 13 7 - - SSW 1002,0 14 0 0,0
20.10.2020 20:00:00 14,8 13,4 - - 16 9 - - SSW 1002,1 13 0 0,0
20.10.2020 19:00:00 15,2 13,3 - - 15 8 - - SSW 1002,3 16 0 0,0
20.10.2020 18:00:00 15,6 13,3 - - 9 5 - - SSW 1002,1 14 0 0,0
20.10.2020 17:00:00 16,2 13,2 - - 15 8 - - SSW 1002,5 17 12 0,0
20.10.2020 16:00:00 16,2 13,1 - - 13 7 - - SSW 1002,9 21 0 0,0
20.10.2020 15:00:00 16,3 12,8 - - 18 10 - - SSW 1002,9 19 18 0,0
20.10.2020 14:00:00 17,1 13,7 - - 16 9 - - SW 1002,9 23 36 0,0
20.10.2020 13:00:00 18,3 14,3 - - 16 9 - - SW 1003,2 20 36 0,0
20.10.2020 12:00:00 16,7 13,9 - - 16 9 - - SW 1003,4 15 30 0,0
20.10.2020 11:00:00 16,4 13,7 - - 21 11 - - SW 1003,2 12 12 0,0
20.10.2020 10:00:00 15,6 13,0 13,0 13,7 16 9 - - SW 1003,1 17 0 0,0
20.10.2020 09:00:00 15,0 12,6 - - 11 6 - - SSW 1003,0 14 0 0,0
20.10.2020 08:00:00 14,1 11,7 - - 15 8 - - SSW 1002,8 16 0 0,0
20.10.2020 07:00:00 13,5 11,8 - - 11 6 - - S 1002,4 17 0 0,0
20.10.2020 06:00:00 13,3 12,0 - - 13 7 - - SSW 1003,3 10 0 0,4
20.10.2020 05:00:00 13,3 11,6 - - 15 8 - - SSW 1003,2 11 0 0,2
20.10.2020 04:00:00 13,0 11,2 - - 13 7 - - SSW 1003,7 14 0 0,0
20.10.2020 03:00:00 13,4 10,0 - - 9 5 - - SSW 1004,3 22 0 0,0
20.10.2020 02:00:00 11,7 8,7 - - 8 4 - - S 1005,6 18 0 0,0
20.10.2020 01:00:00 12,1 8,4 - - 11 6 - - S 1006,1 20 - 0,0
20.10.2020 00:00:00 12,7 7,9 - - 13 7 - - S 1006,9 25 0 0,0
19.10.2020 23:00:00 12,5 7,7 - - 11 6 - - SSE 1007,7 28 0 0,0
19.10.2020 22:00:00 12,4 6,7 - - 11 6 - - S 1008,9 28 0 0,0
19.10.2020 21:00:00 12,7 6,8 - - 13 7 - - S 1009,5 35 0 0,0
19.10.2020 20:00:00 12,9 6,7 - - 15 8 - - S 1010,5 40 0 0,0
19.10.2020 19:00:00 12,8 6,6 - - 13 7 - - SSE 1011,2 20 0 0,0
19.10.2020 18:00:00 12,7 7,1 - - 11 6 - - SSE 1011,9 40 0 0,0
19.10.2020 17:00:00 13,0 6,4 - - 16 9 - - S 1012,9 30 0 0,0
19.10.2020 16:00:00 13,0 6,4 - - 16 9 - - S 1013,8 40 12 0,0
19.10.2020 15:00:00 13,4 6,4 - - 15 8 - - S 1015,0 40 42 0,0
19.10.2020 14:00:00 14,2 7,7 - - 16 9 - - S 1015,8 30 60 0,0
19.10.2020 13:00:00 13,9 7,7 - - 16 9 - - S 1017,0 28 60 0,0
19.10.2020 12:00:00 13,6 8,0 - - 18 10 - - SSW 1018,0 27 48 0,0
19.10.2020 11:00:00 13,1 8,4 - - 15 8 - - S 1018,5 30 24 0,0
19.10.2020 10:00:00 12,8 8,3 13,0 13,7 15 8 - - SSW 1018,7 21 0 0,0
19.10.2020 09:00:00 11,7 8,7 - - 9 5 - - SSW 1019,1 15 0 0,0
19.10.2020 08:00:00 8,7 7,8 - - 4 2 - - S 1019,1 11 0 0,0
19.10.2020 07:00:00 8,8 8,3 - - 2 1 - - S 1019,6 13 0 0,0
19.10.2020 06:00:00 8,7 8,5 - - 0 0 - - N 1020,1 15 0 0,0
19.10.2020 05:00:00 8,2 8,0 - - 2 1 - - ENE 1020,4 17 0 0,0
19.10.2020 04:00:00 7,7 7,4 - - 4 2 - - ENE 1020,7 14 0 0,0
19.10.2020 03:00:00 8,0 7,5 - - 4 2 - - ENE 1021,3 13 0 0,0
19.10.2020 02:00:00 8,8 8,0 - - 4 2 - - E 1022,1 19 0 0,0
19.10.2020 01:00:00 9,0 8,1 - - 0 0 - - N 1022,5 22 - 0,0
19.10.2020 00:00:00 9,1 8,1 - - 2 1 - - ENE 1022,6 21 0 0,0
18.10.2020 23:00:00 9,2 8,1 - - 2 1 - - ENE 1023,0 24 0 0,0
18.10.2020 22:00:00 9,5 8,2 - - 2 1 - - ESE 1023,2 15 0 0,0
18.10.2020 21:00:00 9,7 8,0 - - 2 1 - - WSW 1023,2 35 0 0,0
18.10.2020 20:00:00 10,1 8,0 - - 0 0 - - N 1023,4 40 0 0,0
18.10.2020 19:00:00 10,5 7,3 - - 2 1 - - SW 1023,3 40 0 0,0
18.10.2020 18:00:00 11,0 6,9 - - 4 2 - - SW 1023,1 45 0 0,0
18.10.2020 17:00:00 12,1 5,6 - - 4 2 - - SW 1022,8 50 36 0,0
18.10.2020 16:00:00 14,1 5,0 - - 2 1 - - SW 1023,0 50 54 0,0
18.10.2020 15:00:00 13,6 6,4 - - 4 2 - - E 1023,2 20 18 0,0
18.10.2020 14:00:00 12,7 6,2 - - 8 4 - - NNE 1023,7 45 0 0,0
18.10.2020 13:00:00 12,9 7,4 - - 5 3 - - NNE 1024,2 50 0 0,0
18.10.2020 12:00:00 12,0 9,5 - - 5 3 - - W 1024,7 19 0 0,0
18.10.2020 11:00:00 10,7 8,8 - - 5 3 - - NW 1024,5 13 0 0,0
18.10.2020 10:00:00 9,4 8,5 13,0 13,9 5 3 - - NW 1024,5 9 0 0,0
18.10.2020 09:00:00 7,1 6,8 - - 2 1 - - NNW 1024,2 6 0 0,0
18.10.2020 08:00:00 6,9 6,4 - - 5 3 - - W 1023,7 7 0 0,0
18.10.2020 07:00:00 8,0 7,0 - - 4 2 - - N 1023,1 12 0 0,0
18.10.2020 06:00:00 8,3 6,7 - - 4 2 - - WNW 1023,0 24 0 0,0
18.10.2020 05:00:00 9,2 6,7 - - 5 3 - - N 1022,9 35 0 0,0
18.10.2020 04:00:00 9,3 6,1 - - 4 2 - - NNW 1023,0 40 0 0,0
18.10.2020 03:00:00 9,2 6,1 - - 8 4 - - N 1023,0 35 0 0,0
18.10.2020 02:00:00 9,3 5,8 - - 8 4 - - N 1023,2 35 0 0,0
18.10.2020 01:00:00 8,8 6,4 - - 5 3 - - N 1023,1 27 - 0,0
18.10.2020 00:00:00 8,5 6,7 - - 4 2 - - WNW 1023,3 26 0 0,0
17.10.2020 23:00:00 8,4 6,1 - - 4 2 - - NW 1023,2 20 0 0,0
17.10.2020 22:00:00 9,9 6,9 - - 4 2 - - NNW 1022,9 27 0 0,0
17.10.2020 21:00:00 10,1 7,0 - - 4 2 - - N 1022,8 30 0 0,0
17.10.2020 20:00:00 10,4 7,4 - - 8 4 - - NNE 1022,6 30 0 0,0
17.10.2020 19:00:00 10,6 7,5 - - 5 3 - - NNE 1022,2 35 0 0,0
17.10.2020 18:00:00 11,0 7,3 - - 5 3 - - N 1021,6 40 0 0,0
17.10.2020 17:00:00 11,6 7,5 - - 8 4 - - NNE 1021,3 50 0 0,0
17.10.2020 16:00:00 12,4 7,6 - - 5 3 - - NE 1021,5 45 24 0,0
17.10.2020 15:00:00 13,2 7,2 - - 9 5 - - NNE 1021,3 35 24 0,0
17.10.2020 14:00:00 12,1 7,6 - - 9 5 - - NNE 1021,5 30 0 0,0
17.10.2020 13:00:00 12,3 8,0 - - 5 3 - - NE 1021,7 50 6 0,0
17.10.2020 12:00:00 12,5 8,3 - - 8 4 - - ENE 1022,0 35 6 0,0
17.10.2020 11:00:00 11,1 8,1 - - 5 3 - - NE 1022,0 35 6 0,0
17.10.2020 10:00:00 10,3 8,4 12,9 14,0 9 5 - - ENE 1021,9 30 6 0,0
17.10.2020 09:00:00 8,5 7,1 - - 5 3 - - NNE 1022,1 35 0 0,0
17.10.2020 08:00:00 7,0 4,9 - - 4 2 - - NNE 1021,9 30 0 0,0
17.10.2020 07:00:00 5,8 4,8 - - 4 2 - - NNE 1021,7 29 0 0,0

tt = temperature
td = dewpoint
tt -20cm = temperature -20cm
tt -100cm = temperature -100cm
ff = wind speed
fx = gusts
dd = wind direction
ppp = reduced air pressure
vv = visibility
sd = sunshine duration
rr = precipitation

Next stations